Pour une meilleure expérience, merci d'orienter votre écran en mode paysage.

rotate

Club de Triathlon : MYTRIBE

Le club de Triathlon MYTRIBE se situe dans la ville de ST RAPHAEL (83 - Var). Le club est affilié à la ligue régionale PROVENCE-ALPES-CÔTE D'AZUR de la FFTRI - Fédération Française de Triathlon. Retrouvez ici toute l'activité du club de Triathlon MYTRIBE - Résultats, podiums, objectifs, effectifs....

Résultats de la saison en cours

CltClt FDateEpreuveNomIPRNbTempsGAClt/GAIP
89 16/10/2022Triathlon de Saint Cirq Lapopie (46) - M Marc GENGEMBRE462102h54'45''MV11658Sa course
53 16/10/2022Triathlon de Saint Cyr sur Mer (83) - L Patrick RAIMBAULT54955h55'03''MVE2941Sa course
56509/10/2022Sardines Titus Triathlon (13) - M Marie CHIPIER854852h49'04''FSE490Sa course
374 02/10/2022BayMan (50) - Triathlon M Stéphane LUCAS184033h40'47''MV3336Sa course
30002/10/2022TriOléron (17) - Triathlon M Nicolas ROGEON661392h37'08''MV1481Sa course
7101/10/2022Triathlon des Corsaires (64) - M Charlotte MOREL1092682h08'08''FS31139Sa course
106 01/10/2022BayMan (50) - Triathlon XXL Jean-dominique ROEBBEN021712h18'39''MV31343Sa course
141 25/09/2022Triathlon de la Corniche d'Or (83) - M Patrick RAIMBAULT544972h44'02''MV4872Sa course
128 25/09/2022ExtremeMan (11) - Triathlon M Jerome VELATI231734h01'09''MV12624Sa course
16 25/09/2022Triathlon de Pau (64) - M Olivier GEKIERE78802h26'30''MV2483Sa course
144 24/09/2022Triathlon de Biscarrosse (40) - M Olivier GRONDIN573522h40'00''MV22059Sa course
107 24/09/2022Triathlon Sud Vendée (85) - L David FOREST723854h47'54''MV3772Sa course
174 24/09/2022Triathlon Sud Vendée (85) - L Didier LEFEUVRE383855h08'02''MV4754Sa course
131 24/09/2022Triathlon Sud Vendée (85) - L Denny QUELIER693854h55'36''MV5165Sa course
38 18/09/2022Triathlon de Saint Pardoux (87) - M Jerome BOISSOU63852h40'00''MV2756Sa course
176018/09/2022VentouxMan (84) - Triathlon L Nicolas ROGEON663037h39'03''MV12842Sa course
28118/09/2022Triathlon de Saint Pardoux (87) - M Manon VAN HEISS76852h33'27''FS1168Sa course
48 18/09/2022Triathlon de Saint Pardoux (87) - S Marc GENGEMBRE461371h19'04''MV1667Sa course
54 17/09/2022BalnéaMan 111 (65) - Triathlon L Olivier GEKIERE783045h31'32''MV2583Sa course
133 17/09/2022One2Tri - Lac d'Aiguebelette (73) - Triathlon M Eric CHAGOT03872h30'07''MV21166Sa course
54 11/09/2022TriaLong Ile de France (77) - L Bruno SIMONNET772344h41'19''MV3977Sa course
150511/09/2022TriaLong Ile de France (77) - L Nadia BABAY312345h17'08''FV1133Sa course
21 11/09/2022Triathlon d'Auxonne (21) - M Tony GREMILLET751442h08'18''MS4489Sa course
292 11/09/2022Triathlon d'Aix les Bains (73) - M Raphaël CLEMENT395602h40'36''MV12848Sa course
148 11/09/2022Triathlon de Hyères (83) - M Patrick RAIMBAULT542943h42'53''MV42049Sa course
55311/09/2022Triathlon d'Auxonne (21) - M Laetitia MOUCHET501442h22'16''FV3163Sa course
418 10/09/2022Triathlon de Saint Jean de Luz (64) - M Gautier TRIFFAULT165693h13'17''MV32622Sa course
5023610/09/2022Triathlon de Dinard Côte d'Emeraude (35) - L Soazig TAILLARDAT185906h04'12''FVE1115Sa course
68004/09/2022Triathlon du Lac Chambon (63) - M Nicolas ROGEON661892h31'37''MV11065Sa course
100 04/09/2022Triathlon du Lac Chambon (63) - M Marc GENGEMBRE461892h40'58''MV11648Sa course
57 04/09/2022Triathlon de Quiberon (56) - M David FOREST722872h10'33''MVE1781Sa course
72 04/09/2022Triathlon de l'Omois (02) - S Bruno SIMONNET773551h16'14''MV3681Sa course
34 04/09/2022O'Xyrace (01) - Cross Triathlon S Jerome DUFOUR01521h17'10''080Sa course
DNF 04/09/2022Triathlon de Villevêque (49) - M Gaetan MAZAUD0154MS4 Sa course
47728/08/2022Triathlon du Pont de Sireuil (16) - M Manon VAN HEISS761122h45'15''FS1258Sa course
36 28/08/2022EDF VercorsMan (26) - Triathlon S Jeremy LECLERCQ773221h25'11''MS1991Sa course
188 27/08/2022EDF VercorsMan (26) - Triathlon XL Grégory DAVIN492549h10'31''MV12524Sa course
66 21/08/2022Duathlon de Lorient (56) - S Raphaël TRIQUET672191h22'29''MV2371Sa course
1434 20/08/2022IronMan 70.3 de Vichy (03) - Triathlon L Stéphane LUCAS1820405h14'05''M45-4913229Sa course
DNF 20/08/2022Triathlon du Mont Blanc (74) - M Pascal. FLEURENCE0543 Sa course
20 20/08/2022Triathlon de la Madeleine (73) - S Jeremy LECLERCQ771411h50'08''MS1488Sa course
324 20/08/2022IronMan 70.3 de Vichy (03) - Triathlon L Olivier HEBDING7120404h16'13''M30-348385Sa course
1082 20/08/2022IronMan 70.3 de Vichy (03) - Triathlon L Grégory BANZET6720404h54'10''M25-2918046Sa course
113 20/08/2022Triathlon de la Madeleine (73) - M Gaetan MAZAUD02794h26'49''MS41858Sa course
137 20/08/2022Triathlon de la Madeleine (73) - XL Jérémy FOLCO492119h07'37''MV11830Sa course
234 20/08/2022Triathlon du Mont Blanc (74) - M David RIZZON05433h09'47''057Sa course
140819620/08/2022IronMan 70.3 de Vichy (03) - Triathlon L Magali TREHET2720405h11'46''F50-541230Sa course
1812120/08/2022Triathlon de la Madeleine (73) - XL Soazig TAILLARDAT1821110h49'10''FV247Sa course
627 20/08/2022IronMan 70.3 de Vichy (03) - Triathlon L Jerome BOISSOU6320404h32'45''M45-495369Sa course
460 20/08/2022IronMan 70.3 de Vichy (03) - Triathlon L Tony GREMILLET7520404h24'38''M35-396578Sa course
50 24/07/2022Triathlon de Plouescat (29) - S David FOREST723291h12'04''M MA1787Sa course
1883314/07/2022Triathlon du Haut Languedoc (34) - Championnat de France de Triathlon L Vanessa VIDAL362676h20'27''FV2519Sa course
36 14/07/2022Triathlon de Codolet (30) - S Raphaël TRIQUET671801h11'51''MV2582Sa course
1572714/07/2022Triathlon du Haut Languedoc (34) - Championnat de France de Triathlon L Laetitia MOUCHET502675h55'42''FV3232Sa course
87 10/07/2022Triathlon du Lac du Bouchet (43) - L Didier LEFEUVRE381086h56'51''MV4710Sa course
8 10/07/2022ElsassMan (68) - Triathlon L Come DE LA GORCE63655h31'33''MSE598Sa course
28109/07/2022Triathlon des Gorges - Ardèche et Gard (07) - L Charlotte MOREL1094623h13'19''FS3198Sa course
38 09/07/2022FrenchMan de Libourne (33) - Triathlon L Denny QUELIER691325h14'03''MV5173Sa course
177 09/07/2022Triathlon des Gorges - Ardèche et Gard (07) - L Raphaël TRIQUET674623h44'58''MV22662Sa course
127 09/07/2022Triathlon des Gorges - Ardèche et Gard (07) - L Jérémy FOLCO494623h35'24''MV12173Sa course
50307/07/2022Triathlon des Gorges - Ardèche et Gard (07) - M Marie CHIPIER855861h59'44''FSE394Sa course
1491207/07/2022Triathlon des Gorges - Ardèche et Gard (07) - M Manon VAN HEISS765862h10'50''FSE875Sa course
153 03/07/2022Triathlon d'Embrun (05) - L Grégory BANZET674116h02'33''MS23161Sa course
98 03/07/2022Champ'Man (51) - Triathlon L Guillaume DEWAMIN632395h23'48''MS31157Sa course
88 03/07/2022Champ'Man (51) - Triathlon L Laurent GASPAR432395h20'02''MV4662Sa course
1053 03/07/2022IronMan 70.3 des Sables d'Olonne (85) - L Bruno MILLET5722935h28'03''M50-549553Sa course
641003/07/2022IronMan 70.3 des Sables d'Olonne (85) - L Nicolas ROGEON6622935h07'53''M40-4410172Sa course
68 03/07/2022Triathlon de Bordeaux (33) - M Olivier GRONDIN571702h34'26''MVE1461Sa course
218 03/07/2022Ch'TriMan 113 Gravelines (59) - Triathlon L Fabien CHAILLOU708895h19'06''MVE6975Sa course
21 02/07/2022Triathlon d'Embrun (05) - M Jeremy LECLERCQ775572h40'07''MS15101Sa course
19 02/07/2022Triathlon d'Embrun (05) - XS Jeremy LECLERCQ7716839'14''MS1292Sa course
615 26/06/2022Half IronMan 70.3 de Nice (06) - Triathlon L Guillaume CLERGEOT6417276h00'36''M45-496663Sa course
35 26/06/2022Triathlon des Portes de Gascogne (32) - M Stephane BOYER651032h37'15''MVE1468Sa course
139 26/06/2022IronMan de Nice (06) - Triathlon XXL Olivier OLLAGNIER87179210h51'00''M50-54792Sa course
1542 26/06/2022Half IronMan 70.3 de Nice (06) - Triathlon L Patrice GUERBETTE817277h44'22''M65-69126Sa course
1446 26/06/2022Half IronMan 70.3 de Nice (06) - Triathlon L Gautier TRIFFAULT1617277h22'41''M50-5414712Sa course
1281 26/06/2022IronMan de Nice (06) - Triathlon XXL Jerome VELATI23179214h34'27''M40-4420317Sa course
114 25/06/2022Triathlon de la Touraine (37) - M Nicolas SENON433232h29'12''MV31765Sa course
122 19/06/2022Triathlon de Deauville (14) - M Jeremy LECLERCQ7714112h37'43''MS11293Sa course
127 19/06/2022Triathlon de Chalain-Jura (39) - M Bruno MILLET573482h46'45''MV31163Sa course
981019/06/2022Triathlon de Carpentras (84) - S en CLM Laetitia MOUCHET501741h15'14''FV3144Sa course
119 19/06/2022Triathlon du Lac des Sapins (69) - L Jerome DUFOUR01687h49'58''MV21618Sa course
21119/06/2022Triathlon de Carpentras (84) - S en CLM Charlotte MOREL1091741h05'33''FS3191Sa course
76419/06/2022Triathlon de Carpentras (84) - S en CLM Marie CHIPIER851741h12'07''FS2257Sa course
24 19/06/2022Triathlon du Lac des Sapins (69) - L Wesley DAVID881686h14'28''MS1786Sa course
28 19/06/2022Triathlon du Lac des Sapins (69) - L Olivier GEKIERE781686h17'23''MV2683Sa course
88 19/06/2022Triathlon du Lac des Sapins (69) - L Grégory DAVIN491687h20'39''MV11240Sa course
55 19/06/2022Triathlon du Lac des Sapins (69) - L Olivier HEBDING711686h46'53''MS11263Sa course
201 18/06/2022Triathlon de Deauville (14) - L Geoffrey BONHOMME05355h43'24''MS34463Sa course
DNF 18/06/2022Triathlon de la Combe de Savoie (73) - L Gilles DAGNIAUX053MVE Sa course
521118/06/2022Triathlon de la Combe de Savoie (73) - M Vanessa VIDAL36803h15'29''FVE435Sa course
111012/06/2022Triathlon de Vichy (03) - M Nicolas ROGEON663882h36'40''MVE2672Sa course
24 12/06/2022Triathlon d'Epinal (88) - M Pascal. FLEURENCE01092h36'35''MVE1079Sa course
80 12/06/2022Triathlon des Terres de Normandie (27) - M Laurent GASPAR431792h21'57''MV4556Sa course
26211/06/2022Triathlon de Vichy (03) - L Marie CHIPIER851375h24'00''FSE282Sa course
205 05/06/2022Triathlon d'Obernai - Benfeld (67) - L Philippe SCHEIDECKER02996h11'19''MV12828Sa course
150 05/06/2022TriGames - Cagnes-Sur-Mer (06) - L Raphaël CLEMENT392036h54'25''MV11720Sa course
90 05/06/2022Triathlon de Noirmoutier (85) - M Gaetan MAZAUD01912h48'03''MS41753Sa course
DNF 05/06/2022Triathlon du Galon d'Or (17) - L Didier LEFEUVRE38225MVE Sa course
317 05/06/2022Triathlon de la Côte de Granit Rose (22) - M Yann LOZACH43452h59'40''MV2495Sa course
101 05/06/2022Triathlon d'Obernai - Benfeld (67) - L Olivier HEBDING712995h27'21''MSE5065Sa course
63 05/06/2022Triathlon des Lacs de l'Aube (10) - S Jeremy LECLERCQ774591h20'00''MSE3188Sa course
78 05/06/2022Triathlon du Galon d'Or (17) - L Denny QUELIER692255h02'33''MVE5064Sa course
74 05/06/2022TriGames - Cagnes-Sur-Mer (06) - L Grégory BANZET672035h56'06''MS21761Sa course
390 05/06/2022TriGames - Cagnes-Sur-Mer (06) - M Patrice GUERBETTE84234h08'12''MV687Sa course
22 29/05/2022Triathlon de Dijon (21) - L Wesley DAVID883204h29'13''MSE1397Sa course
240 29/05/2022Triathlon de Dijon (21) - L Jean-dominique ROEBBEN03205h38'57''MVE12923Sa course
DNF 29/05/2022Triathlon de l'Ail (84) - S Marie-maud CUNY82208FS2 Sa course
31 29/05/2022Triathlon du Pays de Rance (22) - M David FOREST721002h23'01''MV3271Sa course
163 29/05/2022Triathlon de Bourg en Bresse (01) - M Jerome DUFOUR02983h16'45''MV21845Sa course
203 28/05/2022FrenchMan Triathlon - Carcans (33) - XXL Fabien CHAILLOU7040311h51'41''MV25048Sa course
97 28/05/2022Triathlon de Dijon (21) - M Bruno MILLET573362h25'27''MVE3272Sa course
307 27/05/2022FrenchMan Triathlon - Carcans (33) - L Gaetan ESSERIC09664h50'01''MV15567Sa course
818 27/05/2022FrenchMan Triathlon - Carcans (33) - L Philippe LE DILY09665h57'40''MV6111Sa course
287 26/05/2022FrenchMan Triathlon - Carcans (33) - M Olivier GRONDIN578162h25'24''MV23165Sa course
121826/05/2022Triathlon de Quimper (29) - S Soazig TAILLARDAT181811h37'20''FV2134Sa course
384 22/05/2022IronMan d'Aix en Provence (13) - Triathlon XXL Philippe RIEUX044815h05'50''M55-59274Sa course
24522/05/2022Triathlon de Bègles (33) - S Manon VAN HEISS761121h15'50''FS1 281Sa course
1262 22/05/2022Half IronMan 70.3 d'Aix en Provence (13) - Triathlon L David RIZZON018566h08'59''M50-5411530Sa course
37 22/05/2022Half du Semnoz à Rumilly (74) - Duathlon L Pascal. FLEURENCE01844h08'03''MV3281Sa course
4833522/05/2022L'Half des 2 Tours (17) - Triathlon L Magali TREHET276605h40'59''FV3126Sa course
166 22/05/2022Triathlon de Carcassonne (11) - M Jerome VELATI232453h14'44''MV11828Sa course
6113622/05/2022Half IronMan 70.3 d'Aix en Provence (13) - Triathlon L Laetitia MOUCHET5018565h21'40''F50-54266Sa course
449 22/05/2022Triathlon du Chemin des Dames (02) - M Stéphane LUCAS185883h03'37''MVE24221Sa course
26 22/05/2022LIGHT ON TRI Woippy** (57) - Triathlon M Come DE LA GORCE631682h47'55''MSE1787Sa course
596 22/05/2022Half IronMan 70.3 d'Aix en Provence (13) - Triathlon L Stephane BOYER6518565h20'43''M45-498867Sa course
308022/05/2022L'Half des 2 Tours (17) - Triathlon L Nicolas ROGEON666605h09'55''MV15853Sa course
69 22/05/2022Triathlon de Vendome (41) - L Olivier OLLAGNIER873765h39'52''MV3681Sa course
58 21/05/2022Triathlon de Loches (37) - S Nicolas SENON431581h18'56''MV3765Sa course
211 16/05/2022Triathlon de l'Ile Charlemagne (45) - M Nicolas SENON434082h54'59''MV32546Sa course
55 16/05/2022Triathlon de l'Ile Charlemagne (45) - M Fabien CHAILLOU704082h29'53''MV2988Sa course
61 15/05/2022Triathlon de Chateauneuf la Forêt (87) - M Marc GENGEMBRE46922h54'07''MV11234Sa course
39 15/05/2022TriGames de Fréjus (83) - Triathlon M Grégory BANZET673452h05'10''MS2891Sa course
65 15/05/2022TriGames de Fréjus (83) - Triathlon M Tristan PEUGEOT733452h10'07''MS4882Sa course
60015/05/2022Triathlon de la Vienne (86) - M Nicolas ROGEON661072h41'30''MVE1742Sa course
70 15/05/2022Triathlon de Châlons-en-Champagne (51) - M Guillaume DEWAMIN632002h34'57''MSE3765Sa course
11 15/05/2022Duathlon de Saint Pierre la Mer (11) - M Raphaël TRIQUET67652h25'54''MV2187Sa course
2101515/05/2022Triathlon de la Vallée de l'Iton (27) - M Nadia BABAY313242h56'49''FVE631Sa course
116 15/05/2022Urban Triathlon Albi (81) - S Jeremy ESOPE01831h28'31''MSE5536Sa course
275 08/05/2022Triathlon de la Côte Bleue (13) - M Tristan PEUGEOT733362h50'50''MS42616Sa course
193 07/05/2022Lacanau Tri'Events (33) - Triathlon L Grégory DAVIN494075h07'44''MVE8753Sa course
218 07/05/2022Lacanau Tri'Events (33) - Triathlon L Guillaume CLERGEOT644075h13'29''MVE9647Sa course
245 07/05/2022Lacanau Tri'Events (33) - Triathlon L Olivier GRONDIN574075h22'04''MVE11240Sa course
36 01/05/2022Triathlon de l'Âme (45) - M Jeremy LECLERCQ772692h23'51''MS1489Sa course
222 01/05/2022Triathlon de l'Âme (45) - M Stéphane LUCAS182693h06'07''MV22917Sa course
716 01/05/2022Triathlon de Cannes (06) - L Laurent GASPAR439586h05'32''MV44022Sa course
219 01/05/2022Triathlon de Cannes (06) - L Tony GREMILLET759585h02'55''MS44177Sa course
84 01/05/2022Tri At Bain (35) - M Yann LOZACH4873h17'13''MVE472Sa course
74330/04/2022Triathlon de Cannes (06) - M Marie CHIPIER859062h04'47''FS2394Sa course
32 24/04/2022Triathlon de Saint Tropez (83) - S Tristan PEUGEOT732091h15'13''MS4287Sa course
337 18/04/2022Duathlon de Meaux (77) - S Stéphane LUCAS183711h29'58''MVE8810Sa course
132 13/03/2022Duathlon de Castelnaudary (11) - S Grégory DAVIN492071h44'30''MV11137Sa course
174 06/03/2022Duathlon de Périgueux (24) - S Marc GENGEMBRE462681h04'48''MVE3436Sa course
Pas de résultats pour ce club

Résultats des TRI-CUP de la saison

Résultats du tri-cup-l

AnnéeCltClt/F TCNomIPRGAClt/GA
2022324213 Olivier HEBDING71MS372
2022348202 Denny QUELIER69MV54
2022428168 Grégory BANZET67MS267
202243129167 Nicolas ROGEON66FV15
2022523117 Grégory DAVIN49MV174

Résultats des TRI-CUP de la saison

Résultats du tri-cup-m

AnnéeCltClt/F TCNomIPRGAClt/GA
2022231283 Jeremy LECLERCQ77MS124
20222468278 Marie CHIPIER85FS23
202255634218 Nicolas ROGEON66FV14

Résultats des TRI-CUP des saisons passées

Résultats du TRI-CUP LD

TRI-CUPAnnéeCltClt/F TCNomIPRGAClt/GA
TRI-CUP LD20217816 Binjamin CHIRON260MS25
TRI-CUP LD202150354 Pierre FONTAINE118MS223
TRI-CUP LD202196273 Guillaume JULIEN93MS415
TRI-CUP LD2021188216 Tony GREMILLET67MS434
TRI-CUP LD20211996209 Adeline MUNAROLO66FS33
TRI-CUP LD2021213201 Tristan PEUGEOT76MS440
TRI-CUP LD2021216200 Christophe BAUDIC63MV46
TRI-CUP LD2021273142 Jérémy FOLCO54MV144
TRI-CUP LD2021307104 Nicolas SENON43MV244
TRI-CUP LD2019270269 Mathieu CHEVREUIL102MV144
TRI-CUP LD2019327256 Gael MOREAU0MV234
TRI-CUP LD2019581187 Stéphane TESSEREAU0MV348
TRI-CUP LD201968249159 Adeline MUNAROLO66FS313
TRI-CUP LD2019711150 Eric CHAGOT0MV2112
TRI-CUP LD201976460132 Lucile GENAY0FS215
TRI-CUP LD201979564121 Aurélie MALLET0FS316
TRI-CUP LD201980667117 Valerie GROSSE0FV33
TRI-CUP LD2019821107 Raphaël CLEMENT32MS4119
TRI-CUP LD201993928 Sylvain GALLO0MV1139
TRI-CUP LD2018197294 Gael MOREAU0MV137
TRI-CUP LD2018263279 Cedric CHABRIAIS0MS437
TRI-CUP LD2018485230 Gaetan ESSERIC0MS478
TRI-CUP LD2018632195 Loïc GUILLOIS0MS3104
TRI-CUP LD201876349164 Soazig TAILLARDAT0FV18
TRI-CUP LD2018865134 Maxime GUERBETTE0MS3123
TRI-CUP LD2018922115 Raphaël CLEMENT32MS4138
TRI-CUP LD20189967585 Christine DUGELAY0FV28
TRI-CUP LD2018104060 Stéphane MORTELETTE0MV1179
TRI-CUP LD2018110618 Patrice GUERBETTE8MV56

Résultats du TRI-CUP M

TRI-CUPAnnéeCltClt/F TCNomIPRGAClt/GA
TRI-CUP M20211819245 Marie-maud CUNY84FS23
TRI-CUP M202121013234 Manon VAN HEISS73FS15
TRI-CUP M202139730140 Adélaïde MEILHAN TREUJOU47FS45
TRI-CUP M202014266 Mathieu CHEVREUIL102MV12
TRI-CUP M2019229290 Mathieu CHEVREUIL102MV135
TRI-CUP M2019589228 Fabien CANGINI0MS153
TRI-CUP M2019776196 Gaetan MAZAUD0MS3104
TRI-CUP M2019899172 Patrick RAIMBAULT0MV434
TRI-CUP M2019965162 Grégoire MATRAY0MS3129
TRI-CUP M20191090140 Jean charles CANCEL0MS2135
TRI-CUP M2019120894110 Lucile GENAY0FS222
TRI-CUP M2019140247 Tanguy CORBOLIOU22MV1219
TRI-CUP M2018191290 Rémi JACQUEL81MS246
TRI-CUP M2018229276 Valentin DOUGUET0MS251
TRI-CUP M2018355251 Christophe LAGARDE0MS358
TRI-CUP M2018561205 Romain PAPILLON81MS286
TRI-CUP M2018959101 Stephane MERLAND0MV2155

Podiums du club

Clt/GAGADateEpreuveNomIPRClt FCltNbTempsIP
1FS301/10/2022Triathlon des Corsaires (64) - MCharlotte MOREL109172682h08'08''139RésultatsSa course
1MV524/09/2022Triathlon Sud Vendée (85) - LDenny QUELIER691313854h55'36''65RésultatsSa course
1FS118/09/2022Triathlon de Saint Pardoux (87) - MManon VAN HEISS76128852h33'27''68RésultatsSa course
1FV111/09/2022TriaLong Ile de France (77) - LNadia BABAY3151502345h17'08''33RésultatsSa course
1FV311/09/2022Triathlon d'Auxonne (21) - MLaetitia MOUCHET503551442h22'16''63RésultatsSa course
2FS128/08/2022Triathlon du Pont de Sireuil (16) - MManon VAN HEISS767471122h45'15''58RésultatsSa course
3MV221/08/2022Duathlon de Lorient (56) - SRaphaël TRIQUET67662191h22'29''71RésultatsSa course
2FV314/07/2022Triathlon du Haut Languedoc (34) - Championnat de France de Triathlon LLaetitia MOUCHET50271572675h55'42''32RésultatsSa course
1MV509/07/2022FrenchMan de Libourne (33) - Triathlon LDenny QUELIER69381325h14'03''73RésultatsSa course
1FS309/07/2022Triathlon des Gorges - Ardèche et Gard (07) - LCharlotte MOREL1091284623h13'19''98RésultatsSa course
3FSE07/07/2022Triathlon des Gorges - Ardèche et Gard (07) - MMarie CHIPIER853505861h59'44''94RésultatsSa course
2MS102/07/2022Triathlon d'Embrun (05) - XSJeremy LECLERCQ771916839'14''92RésultatsSa course
2FS219/06/2022Triathlon de Carpentras (84) - S en CLMMarie CHIPIER854761741h12'07''57RésultatsSa course
1FS319/06/2022Triathlon de Carpentras (84) - S en CLMCharlotte MOREL1091211741h05'33''91RésultatsSa course
1FV319/06/2022Triathlon de Carpentras (84) - S en CLMLaetitia MOUCHET5010981741h15'14''44RésultatsSa course
2FSE11/06/2022Triathlon de Vichy (03) - LMarie CHIPIER852261375h24'00''82RésultatsSa course
2MV329/05/2022Triathlon du Pays de Rance (22) - MDavid FOREST72311002h23'01''71RésultatsSa course
1MV627/05/2022FrenchMan Triathlon - Carcans (33) - LPhilippe LE DILY08189665h57'40''11RésultatsSa course
1FV226/05/2022Triathlon de Quimper (29) - SSoazig TAILLARDAT1881211811h37'20''34RésultatsSa course
1FV322/05/2022L'Half des 2 Tours (17) - Triathlon LMagali TREHET27354836605h40'59''26RésultatsSa course
2F50-5422/05/2022Half IronMan 70.3 d'Aix en Provence (13) - Triathlon LLaetitia MOUCHET503661118565h21'40''66RésultatsSa course
2MV322/05/2022Half du Semnoz à Rumilly (74) - Duathlon LPascal. FLEURENCE0371844h08'03''81RésultatsSa course
2FS1 22/05/2022Triathlon de Bègles (33) - SManon VAN HEISS765241121h15'50''81RésultatsSa course
1MV215/05/2022Duathlon de Saint Pierre la Mer (11) - MRaphaël TRIQUET6711652h25'54''87RésultatsSa course
3FS230/04/2022Triathlon de Cannes (06) - MMarie CHIPIER853749062h04'47''94RésultatsSa course
2MS424/04/2022Triathlon de Saint Tropez (83) - STristan PEUGEOT73322091h15'13''87RésultatsSa course
2FS217/10/2021Triathlon de la Corniche d'Or (83) - MMarie CHIPIER854553602h31'17''87RésultatsSa course
2FS203/10/2021Sardines Titus Duathlon (13) - MMarie CHIPIER855794262h41'46''82RésultatsSa course
1FS303/10/2021Sardines Titus Duathlon (13) - MCharlotte MOREL1091294262h29'05''96RésultatsSa course
3MS202/10/2021FrenchMan Triathlon - Carcans (33) - XXLPierre FONTAINE128113909h13'12''105RésultatsSa course
2FSE26/09/2021ExtremeMan (11) - Triathlon MMarie-maud CUNY822321543h15'51''81RésultatsSa course
3MV425/09/2021Triathlon Sud Vendée (85) - LDenny QUELIER69902454h56'25''61RésultatsSa course
1MS225/09/2021Triathlon Sud Vendée (85) - LBinjamin CHIRON28712453h57'06''257RésultatsSa course
1FS119/09/2021FrenchMan de Libourne (33) - Triathlon MManon VAN HEISS763602362h30'41''76RésultatsSa course
3FS418/09/2021One2Tri - Lac d'Aiguebelette (73) - Triathlon MClaire ANDERHUBER0191533122h28'00''51RésultatsSa course
3MS218/09/2021FrenchMan de Libourne (33) - Triathlon LPierre FONTAINE1285854h21'59''123RésultatsSa course
1FS318/09/2021One2Tri - Lac d'Aiguebelette (73) - Triathlon LCharlotte MOREL1091101354h59'22''99RésultatsSa course
1MS218/09/2021FrenchMan de Libourne (33) - Triathlon LBinjamin CHIRON2871854h04'24''177RésultatsSa course
2MV412/09/2021TriaLong Ile de France (77) - LChristophe BAUDIC67802484h54'43''67RésultatsSa course
3M MA05/09/2021Triathlon des Cadets de Gascogne (47) - XSRaphaël TRIQUET672910538'16''75RésultatsSa course
1FSE04/09/2021Triathlon des Cadets de Gascogne (47) - MManon VAN HEISS761351592h21'28''79RésultatsSa course
3MS229/08/2021Triathlon de Vesoul (70) - LCome DE LA GORCE6334434h23'00''16RésultatsSa course
2FV128/08/2021Triathlon de Morzine Montriond (74) - SEmilie COLANGE01548941h14'47''51RésultatsSa course
2F5021/08/2021IronMan 70.3 de Vichy (03) - Triathlon LMagali TREHET278077411326h09'40''32RésultatsSa course
2MV425/07/2021TriatBreizh (56) - Triathlon LDenny QUELIER691164014h51'13''72RésultatsSa course
1FS118/07/2021Duathlon du Val de Gray (70) - LAdeline MUNAROLO662371324h19'37''70RésultatsSa course
2FS218/07/2021Duathlon du Val de Gray (70) - LMarie CHIPIER853451324h26'18''63RésultatsSa course
2FS404/07/2021Triathlon du Lac Saint Point (25) - MAdélaïde MEILHAN TREUJOU4761252112h42'36''40RésultatsSa course
1FS304/07/2021Triathlon d'Embrun (05) - LAdeline MUNAROLO6641043395h31'39''69RésultatsSa course
1FS203/07/2021Triathlon d'Embrun (05) - MMarie-maud CUNY824603942h50'16''86RésultatsSa course
3MS426/06/2021Triathlon d'Aydat (63) - MGuillaume JULIEN94412562h37'38''85RésultatsSa course
1MS220/06/2021Tours'N Man (37) - Triathlon LBinjamin CHIRON28739393h50'38''382RésultatsSa course
2FS113/06/2021Triathlon de Saint Malo (35) - MManon VAN HEISS7661613462h32'11''53RésultatsSa course
3MS213/06/2021Triathlon de Saint Malo (35) - MPierre FONTAINE12893462h04'15''127RésultatsSa course
3FS206/06/2021TriGames - Cagnes-Sur-Mer (06) - MMarie-maud CUNY826964183h02'43''78RésultatsSa course
3MVE27/09/2020ExtremeMan (11) - Triathlon MMathieu CHEVREUIL110231513h15'23''87RésultatsSa course
1FVE26/09/2020Duathlon de Deauville (14) - LIsabelle ISSERT DE BRAUX073268685h14'16''63RésultatsSa course
3MV419/09/2020LIGHT ON TRI Madine*** (55) - LChristophe BAUDIC67901865h29'30''51RésultatsSa course
2MV430/08/2020Triathlon de Saint Pierre d'Albigny (73) - SJean christophe JARAVEL411142231h41'24''50RésultatsSa course
2MV108/03/2020Duathlon de Grasse (06) - MMathieu CHEVREUIL110171791h42'19''94RésultatsSa course
2FS414/09/2019Triathlon de Saint Jean de Luz (64) - LClaire POLA041103085h21'50''64RésultatsSa course
3FS308/09/2019Triathlon d'Auxonne (21) - MAdeline MUNAROLO665941642h37'59''40RésultatsSa course
2MV101/09/2019Triathlon du Lac Chambon (63) - MMathieu CHEVREUIL110181942h22'59''95RésultatsSa course
3FS225/08/2019IronMan de Vichy (03) - Triathlon XXLLucile GENAY036511124012h26'41''59RésultatsSa course
1FV325/08/2019Triathlon du Lévézou (12) - LValerie GROSSE0151713285h53'33''44RésultatsSa course
2FV224/08/2019IronMan 70.3 de Vichy (03) - Triathlon LIsabelle ISSERT DE BRAUX03748516985h33'15''72RésultatsSa course
3MV103/08/2019Triathlon Montagne Noire (11) - LMathieu CHEVREUIL110201285h10'13''85RésultatsSa course
2MV421/07/2019Triathlon de Marseille (13) - MPatrick RAIMBAULT541766702h40'57''74RésultatsSa course
3MSE21/07/2019TriatBreizh (56) - Triathlon LPacome THIBAULT LOPEZ25633943h57'40''255RésultatsSa course
1FSE30/06/2019HalfTriMan (23) - Triathlon MClaire POLA01481642h47'20''72RésultatsSa course
2FV316/06/2019IronMan 70.3 des Sables d'Olonne (85) - LValerie GROSSE05095923065h24'07''59RésultatsSa course
3FS216/06/2019Tours'N Man (37) - Triathlon LLucile GENAY0254528495h33'00''46RésultatsSa course
3FV316/06/2019Triathlon du Lac des Sapins (69) - LChristine DUGELAY0182312827h24'36''13RésultatsSa course
3FS316/06/2019Tours'N Man (37) - Triathlon LAdeline MUNAROLO6642118495h03'28''75RésultatsSa course
1MV325/05/2019Triathlon de Dijon (21) - MCyril SACCHI83172882h13'09''99RésultatsSa course
2MV112/05/2019Triathlon d'Argelès sur Mer (66) - MMathieu CHEVREUIL110231192h06'48''83RésultatsSa course
1MS209/09/2018Triathlon du Grand Meaulnes (18) - MRémi JACQUEL82101732h41'36''102RésultatsSa course
1FVE22/07/2018Triathlon de Feins (35) - MValerie GROSSE01621922h34'01''68RésultatsSa course
2MV107/07/2018Full AlTriMan (66) - Triathlon XXLStijn ROELENS01018913h41'46''100RésultatsSa course
1MS101/07/2018Triathlon du Gardon (30) - MNicolas PELLET4922382h59'37''46RésultatsSa course
3MS424/06/2018Triathlon de Vitry le François (51) - MBenoit BAPTISTE0183422h13'59''99RésultatsSa course
2MS403/06/2018Triathlon d'Obernai - Benfeld (67) - MBenoit BAPTISTE0124302h39'38''105RésultatsSa course
3MV103/06/2018Triathlon du Pont de Sireuil (16) - LGael MOREAU08924h23'22''103RésultatsSa course
3MV420/05/2018Island Man - La Ciotat (13) - Triathlon LPascal LEMASSON0754065h05'56''81RésultatsSa course
3MS213/05/2018Triathlon de Châlons-en-Champagne (51) - MRémi JACQUEL82211762h25'29''91RésultatsSa course
3MV429/04/2018Triathlon de Cannes (06) - LPascal LEMASSON02139835h54'29''77RésultatsSa course
2FV229/04/2018Triathlon de Cannes (06) - LValerie GROSSE0213199836h08'58''65RésultatsSa course
3M6027/08/2017Triathlon du Château de Chantilly (60) - LPatrice GUERBETTE82913356h50'29''13RésultatsSa course
1FS227/08/2017Triathlon du Mont Blanc (74) - LMaëliss CLEMENCON03851536h43'07''41RésultatsSa course
1MVE02/07/2017Ch'TriMan 226 Gravelines (59) - Triathlon XXLStijn ROELENS011409h11'24''212RésultatsSa course
2FS202/07/2017Triathlon du Plan d'Eau du Canada (60) - LAurélie MALLET0142773106h15'36''11RésultatsSa course
3FS228/05/2017Triathlon de Bourg en Bresse (01) - MMaëliss CLEMENCON082254642h46'17''50RésultatsSa course
3M3530/08/2015IronMan de Vichy (03) - Triathlon XXLStijn ROELENS01811689h10'31''107RésultatsSa course

Résultats aux championnats de France

DateNomIPRClt FCltNbTempsGAClt/GA
14/07/2022Laetitia MOUCHET50261572525h55'42''FV32RésultatsSa course
14/07/2022Vanessa VIDAL36321882526h20'27''FV25RésultatsSa course
06/06/2021Tristan PEUGEOT732554255h31'26''MS427RésultatsSa course
06/06/2021Laetitia MOUCHET50223194255h45'25''FV24RésultatsSa course
06/06/2021Jérémy FOLCO493734255h57'30''MV142RésultatsSa course
06/06/2021Binjamin CHIRON287294254h34'26''MS214RésultatsSa course
06/06/2021Marie CHIPIER85132014255h19'31''FS26RésultatsSa course
25/08/2019Mathieu CHEVREUIL1101123015h28'00''MV115RésultatsSa course
25/08/2019Valerie GROSSE0141643015h53'33''FV31RésultatsSa course
07/07/2018Valerie GROSSE0423156486h05'08''FV25RésultatsSa course
07/07/2018Christophe SAINT PASTOU03346486h09'17''MV245RésultatsSa course
14/04/2018Bruno SIMONNET771352361h06'28''MV26RésultatsSa course

Coureurs actuels du Club

Charlotte MOREL
IPR : 109
Catégorie de niveau : Elite 1ère classe
Wesley DAVID
IPR : 88
Catégorie de niveau : 2ème catégorie
Olivier OLLAGNIER
IPR : 87
Catégorie de niveau : 2ème catégorie
Marie CHIPIER
IPR : 85
Catégorie de niveau : Elite 3ème classe
Marie-maud CUNY
IPR : 82
Catégorie de niveau : Elite 3ème classe
Olivier GEKIERE
IPR : 78
Catégorie de niveau : 2ème catégorie
Bruno SIMONNET
IPR : 77
Catégorie de niveau : 2ème catégorie
Jeremy LECLERCQ
IPR : 77
Catégorie de niveau : 2ème catégorie
Manon VAN HEISS
IPR : 76
Catégorie de niveau : Elite 3ème classe
Tony GREMILLET
IPR : 75
Catégorie de niveau : 3ème catégorie
Tristan PEUGEOT
IPR : 73
Catégorie de niveau : 3ème catégorie
David FOREST
IPR : 72
Catégorie de niveau : 3ème catégorie
Olivier HEBDING
IPR : 71
Catégorie de niveau : 3ème catégorie
Fabien CHAILLOU
IPR : 70
Catégorie de niveau : 3ème catégorie
Denny QUELIER
IPR : 69
Catégorie de niveau : 3ème catégorie
Grégory BANZET
IPR : 67
Catégorie de niveau : 3ème catégorie
Christophe BAUDIC
IPR : 67
Catégorie de niveau : 3ème catégorie
Raphaël TRIQUET
IPR : 67
Catégorie de niveau : 3ème catégorie
Nicolas ROGEON
IPR : 66
Catégorie de niveau : 2ème catégorie
Guillaume CLERGEOT
IPR : 64
Catégorie de niveau : 3ème catégorie
Jerome BOISSOU
IPR : 63
Catégorie de niveau : 3ème catégorie
Come DE LA GORCE
IPR : 63
Catégorie de niveau : 3ème catégorie
Guillaume DEWAMIN
IPR : 63
Catégorie de niveau : 3ème catégorie
Olivier GRONDIN
IPR : 57
Catégorie de niveau : 3ème catégorie
Bruno MILLET
IPR : 57
Catégorie de niveau : 3ème catégorie
Patrick RAIMBAULT
IPR : 54
Catégorie de niveau : 4ème catégorie
Laetitia MOUCHET
IPR : 50
Catégorie de niveau : 3ème catégorie
Jérémy FOLCO
IPR : 49
Catégorie de niveau : 4ème catégorie
Grégory DAVIN
IPR : 49
Catégorie de niveau : 4ème catégorie
Marc GENGEMBRE
IPR : 46
Catégorie de niveau : 4ème catégorie
Nicolas SENON
IPR : 43
Catégorie de niveau : 4ème catégorie
Laurent GASPAR
IPR : 43
Catégorie de niveau : 4ème catégorie
Raphaël CLEMENT
IPR : 39
Catégorie de niveau : 4ème catégorie
Didier LEFEUVRE
IPR : 38
Catégorie de niveau : 4ème catégorie
Vanessa VIDAL
IPR : 36
Catégorie de niveau : 4ème catégorie
Nadia BABAY
IPR : 31
Catégorie de niveau : 4ème catégorie
Magali TREHET
IPR : 27
Catégorie de niveau : 4ème catégorie
Jerome VELATI
IPR : 23
Catégorie de niveau : 5ème catégorie
Stéphane LUCAS
IPR : 18
Catégorie de niveau : 5ème catégorie
Soazig TAILLARDAT
IPR : 18
Catégorie de niveau : 5ème catégorie
Gautier TRIFFAULT
IPR : 16
Catégorie de niveau : 5ème catégorie
Patrice GUERBETTE
IPR : 8
Catégorie de niveau : 5ème catégorie
Yann LOZACH
IPR : 4
Catégorie de niveau : 5ème catégorie
David RIZZON
IPR : N/A
Catégorie de niveau : Non classé
Claire ANDERHUBER
IPR : N/A
Catégorie de niveau : Non classée
Jean-dominique ROEBBEN
IPR : N/A
Catégorie de niveau : Non classé
Jerome DUFOUR
IPR : N/A
Catégorie de niveau : Non classé
Gaetan ESSERIC
IPR : N/A
Catégorie de niveau : Non classé
Philippe RIEUX
IPR : N/A
Catégorie de niveau : Non classé
Philippe SCHEIDECKER
IPR : N/A
Catégorie de niveau : Non classé
Gaetan MAZAUD
IPR : N/A
Catégorie de niveau : Non classé
Jeremy ESOPE
IPR : N/A
Catégorie de niveau : Non classé
Geoffrey BONHOMME
IPR : N/A
Catégorie de niveau : Non classé
Gilles DAGNIAUX
IPR : N/A
Catégorie de niveau : Non classé
Emilie COLANGE
IPR : N/A
Catégorie de niveau : Non classée
Eric CHAGOT
IPR : N/A
Catégorie de niveau : Non classé
Philippe LE DILY
IPR : N/A
Catégorie de niveau : Non classé
Pascal. FLEURENCE
IPR : N/A
Catégorie de niveau : Non classé
Philippe GEYER
IPR : N/A
Catégorie de niveau : Non classé
IPR : N/A
Catégorie de niveau :